Location: Newark
(40.2531°N, 0.7525°W)
Time: 20:02:56
(UTC+00:00)

Hubble Space Telescope - Pass Details

Date: 25 March 2019
Orbit: 536 x 540 km, 28.5° (Epoch: 19 October)

Event Time Altitude Azimuth Distance (km) Brightness Sun altitude
Rises 20:03:26 0° 228° (SW) 2,673 4.7 -20.1°
Reaches altitude 10° 20:06:39 10° 202° (SSW) 1,784 3.4 -20.7°
Enters shadow 20:07:26 12° 191° (S) 1,653 3.1 -20.8°
